Theta_e
315 316 316 312 312 312 313 313 313 314 312 312 308 306 306 308 308 309 309 307 304 300 296 294 291 290 289 288 288 288 286 285 284 284 283 282 282 282 281 281 281 281 281 281
316 315 315 315 313 311 312 313 312 311 312 308 308 304 304 307 309 310 309 307 302 298 294 292 290 288 287 286 287 286 284 284 283 282 282 282 281 281 281 281 281 281 281 281
318 316 315 317 316 315 312 311 312 313 312 310 309 308 306 306 308 309 309 305 300 296 293 291 289 286 285 285 285 284 283 283 282 282 281 281 281 281 281 281 280 281 281 281
315 314 319 313 312 314 314 313 311 310 309 308 310 310 307 304 308 308 308 303 298 294 290 288 286 285 285 284 283 283 282 281 281 281 281 281 280 280 280 280 280 280 280 280
317 317 315 315 311 312 312 312 311 311 310 309 306 307 306 302 304 307 306 301 296 292 288 285 284 284 284 283 282 282 281 281 280 280 280 280 280 280 280 280 280 280 280 280
316 318 320 312 311 309 312 313 310 310 311 309 305 309 309 303 301 302 300 296 290 287 285 283 283 283 282 281 281 281 280 280 280 280 280 280 280 280 280 280 280 280 280 279
315 315 313 305 304 310 315 309 306 309 309 306 306 301 295 296 295 294 291 287 285 284 284 282 282 282 281 280 280 280 280 280 280 280 280 280 280 280 280 280 280 279 279 280
312 313 315 303 306 310 304 302 304 303 304 298 292 289 288 288 287 286 286 285 284 283 282 281 281 281 280 280 279 279 279 279 279 280 280 280 280 280 280 279 279 279 279 280
303 303 303 301 302 298 297 299 300 301 296 293 289 287 286 286 285 284 282 282 282 281 280 280 280 280 279 278 279 279 279 279 279 280 280 280 280 279 279 279 279 279 279 280
303 300 294 299 296 296 295 295 295 295 293 291 288 286 285 283 282 281 281 280 280 280 280 280 279 279 278 278 279 279 279 279 280 281 279 279 279 279 279 279 279 280 280 280
300 292 290 297 292 291 292 292 294 294 292 290 287 285 284 282 281 280 280 280 280 279 279 278 278 278 278 279 279 279 279 280 280 279 279 278 278 278 279 279 281 281 281 281
287 285 285 286 288 288 289 290 291 293 290 287 285 284 283 281 280 280 279 279 279 278 278 278 277 277 278 279 279 279 279 280 279 279 278 277 277 278 278 280 280 280 280 281
281 281 282 283 286 288 287 288 288 290 288 286 284 284 283 281 280 280 279 278 278 278 277 277 277 277 278 278 279 279 279 279 279 278 277 277 278 278 277 278 278 278 279 280
279 279 281 283 282 283 285 286 286 286 286 285 284 282 281 281 281 279 279 278 278 277 277 277 277 277 277 278 278 279 280 279 277 278 277 277 277 277 277 277 277 277 277 279
277 277 278 280 282 284 285 284 283 283 282 282 281 281 281 279 279 278 278 278 277 277 277 277 276 277 277 277 278 278 278 277 277 277 278 277 277 277 277 277 276 276 276 278
276 276 277 280 283 282 282 281 282 280 280 280 280 279 278 278 278 278 277 277 277 277 276 276 276 276 277 277 277 278 279 279 277 277 277 277 277 276 276 276 276 276 275 276
276 276 277 279 279 279 279 280 280 279 278 278 278 277 277 277 277 277 277 276 276 276 276 276 276 276 276 276 276 276 277 277 277 276 277 276 276 276 276 276 276 275 275 276
276 276 276 277 277 277 277 277 277 277 277 277 277 277 276 276 276 276 276 275 275 275 275 276 276 275 275 275 276 276 276 275 276 276 276 277 275 275 275 275 275 274 275 275
275 275 276 276 276 276 276 276 276 276 276 275 275 275 275 275 275 275 275 275 275 275 275 276 276 275 275 275 275 275 275 275 275 275 274 274 274 274 274 273 274 274 274 274
274 274 275 275 275 275 275 275 275 275 275 275 275 274 274 274 274 274 274 274 274 274 275 274 274 275 275 274 274 274 274 274 274 274 274 274 273 273 273 273 273 273 274 273
274 274 273 273 273 274 274 274 274 274 274 274 274 274 274 274 274 274 274 275 274 274 274 274 273 273 273 273 273 273 273 273 273 272 273 273 273 273 273 273 273 273 273 273
273 273 273 273 272 272 272 273 273 273 273 273 273 273 273 273 273 273 274 274 275 274 273 273 273 274 273 273 273 273 273 273 272 272 272 272 272 272 272 272 272 273 273 273
273 273 272 272 272 271 271 271 271 272 272 272 272 272 272 272 273 273 274 275 274 274 273 274 275 274 272 272 272 272 272 272 272 272 272 272 272 272 272 272 272 273 273 273
272 272 272 272 272 272 272 271 271 271 271 271 271 272 272 272 273 273 274 275 275 274 274 273 273 271 272 272 272 272 272 271 271 271 271 271 271 271 272 272 272 272 272 273
272 272 271 272 272 272 272 272 272 271 270 270 270 270 271 272 272 272 273 274 273 274 273 273 272 270 270 271 271 271 271 271 271 270 270 270 270 270 271 271 272 272 272 273
273 272 272 272 272 273 272 272 272 272 271 270 270 270 270 270 271 271 271 271 271 271 271 270 270 270 270 270 270 270 270 270 270 270 270 270 270 270 270 270 271 272 272 272
273 273 272 272 272 272 273 273 271 272 272 271 270 270 270 270 270 270 270 269 269 269 269 269 269 269 269 269 269 269 269 269 270 269 269 269 269 269 269 270 271 271 272 272
Wind_Speed
5 6 3 3 8 17 17 24 9 14 10 9 9 10 10 9 11 14 14 14 15 15 14 16 22 24 27 30 33 31 26 22 19 15 11 7 4 1 3 5 7 9 12 14
10 10 4 4 7 8 17 18 12 11 7 6 4 5 8 11 15 16 18 17 16 16 17 17 24 26 28 32 32 29 25 21 18 13 10 6 2 1 3 6 8 10 12 15
6 11 8 5 12 9 5 6 11 13 18 9 6 8 11 12 15 18 19 18 18 18 16 19 22 25 25 27 30 26 23 20 16 12 8 4 1 2 4 7 9 11 14 16
1 7 7 7 11 21 19 14 16 10 6 9 14 13 5 10 18 15 15 16 16 15 17 25 29 28 30 30 27 24 21 18 14 11 7 4 2 3 6 8 11 13 15 16
3 4 4 2 4 9 8 14 10 15 11 9 3 3 5 7 13 17 17 15 14 23 27 29 30 32 33 28 26 22 20 17 13 9 7 4 3 5 7 10 12 13 15 18
2 3 4 3 6 5 3 6 8 7 8 9 7 5 7 2 5 12 15 15 20 29 31 32 29 33 29 25 23 19 19 15 11 9 6 4 4 6 8 9 11 13 15 15
6 1 1 13 25 3 6 7 14 2 5 7 6 2 2 7 12 12 18 23 31 30 28 29 32 32 25 22 18 20 16 13 11 8 7 6 5 6 7 9 10 13 15 16
5 3 3 18 10 6 9 15 12 10 4 5 9 6 8 12 14 16 20 21 27 27 27 28 30 30 24 20 22 19 16 13 11 9 8 6 5 6 7 9 11 14 17 18
2 3 3 4 5 7 11 11 14 10 5 2 12 6 11 12 14 14 16 19 24 27 26 26 26 27 24 22 23 20 17 14 12 11 9 7 7 6 8 9 11 15 14 16
4 8 14 4 12 15 13 13 18 12 5 5 6 13 13 13 13 12 12 16 25 28 25 21 22 22 24 23 21 20 18 15 13 12 10 9 8 7 8 9 11 14 13 15
6 13 17 2 17 20 16 16 14 13 7 2 10 6 13 13 12 12 14 20 23 24 24 24 25 23 19 20 20 19 18 15 12 11 11 10 10 8 7 7 9 12 14 16
5 18 8 19 18 23 18 16 15 11 6 2 5 8 11 13 13 15 16 23 24 24 24 24 25 21 20 18 19 19 16 14 13 12 10 11 12 13 8 7 8 9 12 13
10 18 18 21 19 9 19 15 12 8 2 4 4 7 8 12 15 24 22 25 25 27 25 25 23 22 19 18 19 19 18 15 13 12 12 12 13 15 15 16 11 11 12 13
12 17 8 4 13 21 19 10 7 6 6 6 9 11 10 11 18 19 20 23 26 27 26 25 22 20 18 18 20 18 17 13 14 12 11 13 14 14 15 14 16 20 18 17
13 15 17 20 18 13 5 5 7 6 6 9 13 9 11 11 9 16 25 26 28 26 23 23 20 18 18 17 18 18 16 15 13 13 12 12 15 15 15 17 19 17 21 23
18 16 14 16 12 9 6 3 6 4 7 11 12 12 18 20 20 19 21 24 23 19 21 20 18 17 16 16 17 18 17 13 12 14 14 14 15 15 15 17 18 17 17 20
14 15 14 9 8 9 7 5 6 7 9 13 15 21 23 23 21 19 19 22 24 23 20 17 17 16 16 15 16 17 17 15 12 14 14 14 13 14 14 14 15 17 18 17
11 10 10 9 8 8 10 10 10 9 9 16 20 19 18 17 14 18 20 24 24 22 19 18 16 16 15 14 15 16 16 15 14 14 13 14 13 13 13 13 16 19 21 21
17 13 13 13 13 10 9 10 15 16 16 20 22 18 20 20 21 19 20 20 19 17 14 16 14 17 15 13 14 15 15 15 15 14 13 11 14 14 14 15 17 18 20 21
14 19 20 20 23 19 12 18 17 17 20 24 24 21 18 18 19 19 21 17 14 14 14 13 15 17 16 13 13 15 14 15 14 14 13 12 14 15 15 15 16 20 21 22
14 18 18 18 19 24 23 17 16 18 21 26 21 17 18 19 19 17 14 11 12 13 13 10 13 14 13 13 13 15 15 15 15 15 15 15 15 17 17 18 20 21 22 23
15 14 17 20 18 18 20 17 17 19 24 21 19 17 17 17 18 16 14 11 12 10 12 11 12 11 12 13 13 14 15 15 14 13 13 13 15 16 16 17 20 21 23 24
15 16 15 15 14 12 15 17 19 22 21 17 15 16 15 15 12 10 7 10 11 11 14 12 10 10 10 11 12 12 12 12 11 10 11 11 12 13 15 16 18 19 23 25
10 12 12 12 12 13 13 17 20 18 17 16 15 13 12 14 15 11 10 8 12 13 11 9 8 8 8 9 9 8 8 7 6 6 6 7 8 10 12 14 17 18 22 24
10 11 12 10 10 9 10 10 12 13 14 14 13 11 8 4 5 10 11 10 8 12 12 8 7 6 6 6 6 6 6 5 5 5 5 7 8 9 11 12 15 18 21 24
9 10 12 15 14 13 14 14 11 10 10 12 12 10 10 9 8 8 7 5 6 5 3 2 2 3 4 5 5 5 4 4 4 4 6 6 8 10 11 13 14 17 20 23
11 11 12 11 15 14 12 12 12 12 9 7 8 7 7 8 7 6 4 3 2 2 2 2 2 2 3 3 3 3 3 2 2 4 5 7 9 10 12 13 15 16 19 22
Wind_Direction
184 24 332 230 217 222 207 224 196 241 224 256 207 200 195 169 152 154 161 157 158 153 151 147 143 144 144 146 160 166 166 166 168 171 176 179 188 245 312 327 334 333 327 326
201 137 40 336 307 211 222 240 248 272 280 252 52 114 156 184 174 175 177 172 164 158 155 154 151 147 146 148 160 164 165 164 165 167 167 167 168 319 337 346 344 338 336 329
215 155 129 243 230 251 198 190 212 228 243 253 262 218 191 191 188 188 185 174 168 162 156 148 146 143 140 145 158 162 161 160 160 159 157 149 127 6 4 357 348 346 338 333
170 117 219 250 190 210 218 218 210 227 208 216 234 250 229 199 191 195 183 168 162 154 144 142 138 138 143 151 156 159 158 155 154 154 144 134 89 26 10 360 354 344 339 337
199 177 337 266 242 199 181 246 216 221 223 223 124 88 267 188 200 196 178 162 152 145 137 133 135 141 143 147 153 157 156 154 153 147 138 124 71 31 17 359 350 348 341 334
216 150 167 317 290 161 149 267 210 165 228 211 157 212 246 271 132 132 137 141 136 135 131 129 136 142 138 140 148 152 157 153 146 138 128 102 64 35 12 357 351 345 340 341
250 161 351 342 328 322 141 329 326 161 192 155 177 221 81 82 80 107 124 128 129 131 132 133 137 138 134 139 144 156 151 143 134 128 113 89 59 29 10 2 352 346 345 349
261 215 264 1 359 33 322 324 329 333 10 102 106 88 82 93 102 110 119 124 128 125 126 131 135 136 136 139 151 149 143 136 129 118 105 83 58 37 22 4 356 345 342 342
55 288 240 314 73 7 349 332 336 324 357 41 126 119 116 113 112 116 118 121 124 122 121 127 133 140 133 144 149 145 139 133 122 113 98 76 65 40 20 13 354 342 335 329
279 46 336 353 14 357 357 348 332 327 31 42 315 135 128 123 121 118 118 121 126 124 122 119 123 128 136 145 148 140 132 123 113 103 85 73 51 39 20 6 347 341 334 330
279 23 331 9 351 340 346 343 334 325 323 163 147 171 137 129 126 126 125 125 125 124 120 118 123 126 135 139 140 129 119 111 104 90 80 63 50 32 20 6 351 351 347 341
293 334 328 298 315 319 339 331 334 316 320 48 142 152 144 133 132 132 129 128 122 118 116 118 118 120 131 138 137 126 112 105 99 87 74 63 48 40 48 23 12 9 352 342
291 302 297 276 283 321 326 319 326 316 287 143 99 141 143 132 134 134 128 127 125 121 119 116 117 121 129 131 129 118 111 106 99 87 74 61 45 36 20 24 23 14 2 355
302 336 297 311 306 311 298 312 0 25 42 80 88 94 106 123 126 123 121 120 117 117 119 121 121 120 128 127 124 113 107 98 94 86 78 62 54 45 33 20 2 355 5 1
318 309 290 294 295 289 289 11 42 49 75 79 87 102 106 108 109 113 116 117 117 115 114 116 116 119 125 124 120 112 100 96 95 91 71 63 55 46 32 23 10 356 359 11
314 314 313 313 315 339 354 34 91 68 89 95 91 90 96 101 103 103 110 119 117 114 114 113 112 122 125 125 122 112 102 99 96 87 77 64 54 44 33 21 9 359 355 349
338 344 341 330 355 3 5 34 82 89 97 100 105 110 110 107 102 99 96 100 103 105 108 110 112 124 126 128 122 114 109 99 98 90 73 65 52 43 32 21 9 4 360 359
346 347 353 2 15 29 35 43 59 67 80 97 102 105 104 104 103 103 103 103 99 96 102 110 115 116 117 117 114 111 108 106 98 88 78 64 46 45 38 25 16 13 7 4
6 7 15 24 28 36 43 49 56 67 80 87 87 84 88 88 92 93 95 91 93 98 109 111 107 107 99 102 111 110 108 106 98 84 80 67 53 44 37 24 17 14 9 3
15 20 26 33 36 37 44 53 68 74 77 84 84 85 85 81 87 89 94 83 93 105 117 113 111 107 107 102 109 109 107 101 99 89 68 68 51 46 40 28 17 15 10 4
15 18 26 32 33 33 36 44 63 67 71 74 82 85 88 87 87 91 92 91 103 111 105 109 115 115 113 110 111 109 105 101 93 87 79 67 59 48 41 34 27 20 15 7
14 20 22 26 31 33 29 41 59 70 70 72 76 81 81 77 84 86 94 98 105 105 109 108 107 105 109 113 113 108 102 98 95 89 79 66 55 45 36 30 22 18 16 11
15 21 24 28 30 36 46 44 50 63 69 74 79 87 82 83 92 100 86 87 114 106 105 105 111 114 117 122 119 114 106 102 94 86 77 63 53 42 34 27 18 16 14 9
24 23 25 34 37 40 40 38 55 66 77 79 75 80 95 95 92 106 127 134 99 116 101 107 111 113 126 129 125 121 114 105 93 74 62 51 40 30 25 21 16 14 11 9
42 42 45 42 46 40 49 64 71 73 77 78 75 71 76 119 135 117 125 115 105 115 112 103 106 110 122 119 118 122 126 108 74 67 51 37 24 14 9 8 9 9 5 5
45 45 36 37 31 36 45 51 49 60 64 71 68 70 76 87 108 119 110 108 142 163 157 108 95 106 113 116 119 121 120 110 94 68 45 27 14 6 1 3 5 5 2 359
32 55 43 36 36 35 45 44 40 26 33 52 73 65 73 84 84 94 93 92 88 100 135 157 153 102 116 121 134 138 134 117 89 50 21 9 4 360 359 6 7 3 359 356